Sugarloaf Regional (B21)
Carrabassett, ME
Field Elevation: 885
Lat: 45°05.12N  Long: 70°12.98W
CTAF/Unicom Freq: 122.8000
   
    
Weather Advisories
10/25/2014 06:58 Z
Altimeter 29.68" Hg
Wind 230° @ 4 KT
Gusts --
Visibility 10 SM
Temperature 8° C (46° F)
Dewpoint -4° C (25° F)
Relative Humidity 40%
Density Altitude --
Condensation Altitude 7,300 feet
Wind Chill 7° C (45° F)
  Wind and Runways
Indicated Runway = 17
History
 
 
More Info
All DigiWx sites map
 
NOAA Forecast
 
Airport IQ 5010
(39N) Princeton, NJ
(PN44) Upper Gwynedd Heliport
 
about DigiWx
 
FAA Disclaimer: The data displayed is for advisory purposes only and is not to be used for flight planning or operations. For official data, please call (not available) to hear the current automated AWOS voice message.
  METAR B21 250658Z AUTO 23004KT 10SM 08/M04 A2968